Location: Broekland
(52.3610°N, 6.2005°E)
Time: 06:08:50
(UTC+00:00)

Meteor 1-26 Rocket - Pass Details

Date: 19 May 2025
Orbit: 805 x 928 km, 81.3° (Epoch: 14 June)

Event Time Altitude Azimuth Distance (km) Brightness Sun altitude
Exits shadow 20:53:43 - 184° (S) 3,191 6.8 -9.9°
Reaches altitude 10° 20:55:23 10° 183° (S) 2,562 6.3 -10.1°
Maximum altitude 21:01:14 76° 99° (E) 946 4.4 -10.6°
Drops below altitude 10° 21:07:15 10° 16° (NNE) 2,637 7.4 -11.1°
Sets 21:09:46 0° 15° (NNE) 3,589 8.1 -11.4°
